Station FMRF1 - 8725520 - Fort Myers, FL Image indicating link to RSS feed of recent meteorological observations for station FMRF1


Conditions at FMRF1 as of
(9:18 am EDT)
1318 GMT on 07/22/2024:
     

Click on the graph icon in the table below to see a time series plot of the last five days of that observation.

5-day plot - Wind Direction Wind Direction (WDIR):NNE ( 30 deg true )
5-day plot - Wind Speed Wind Speed (WSPD): 1.9 kts
5-day plot - Wind Gust Wind Gust (GST): 4.1 kts
5-day plot - Atmospheric Pressure Atmospheric Pressure (PRES):30.06 in
5-day plot - Air Temperature Air Temperature (ATMP): 83.7 °F
5-day plot - Water Temperature Water Temperature (WTMP): 87.3 °F
5-day plot - Wind Speed at 10 Meters Wind Speed at 10 meters (WSPD10M): 1.9 kts
5-day plot - Wind Speed at 20 Meters Wind Speed at 20 meters (WSPD20M): 3.9 kts
5-day plot -  Wind Speed, Wind Gust and Atmospheric Pressure Combined plot of Wind Speed, Gust, and Air Pressure
NOS Water Level Observation Network Water Level
Previous observations
TIME
(EDT)
5-day plot - Wind Direction
WDIR
 
5-day plot - Wind Speed
WSPD
kts
5-day plot - Wind Gust
GST
kts
5-day plot - Wave Height
WVHT
ft
5-day plot - Dominant Wave Period
DPD
sec
5-day plot - Average Wave Period
APD
sec
5-day plot - Mean Wave Direction
MWD
 
5-day plot - Atmospheric Pressure
PRES
in
5-day plot - Pressure Tendency
PTDY
in
5-day plot - Air Temperature
ATMP
°F
5-day plot - Water Temperature
WTMP
°F
5-day plot - Dew Point
DEWP
°F
5-day plot - Salinity
SAL
psu
5-day plot - Visibility
VIS
nmi
5-day plot - Tide (above MLLW)
TIDE
ft
2024-07-22 09:12 am E 1.9 2.9----30.06- 84.0 87.3----
2024-07-22 09:06 am- 0.0 1.9----30.06- 83.7 87.3----
2024-07-22 09:00 am E 1.9 2.9----30.06+0.06 82.8 87.3----
2024-07-22 08:54 amENE 1.9 2.9----30.06- 82.0 87.3----
2024-07-22 08:48 am NE 2.9 2.9----30.06- 81.5 87.3----
2024-07-22 08:42 am E 1.0 1.9----30.06- 81.3 87.4----
2024-07-22 08:36 amESE 1.9 4.1----30.06- 80.8 87.4----
2024-07-22 08:30 am NE 2.9 5.1----30.06- 80.4 87.4----
2024-07-22 08:24 am NE 1.9 2.9----30.06- 80.8 87.4----
2024-07-22 08:18 am E 1.0 2.9----30.06- 80.4 87.4----
2024-07-22 08:12 am SE 2.9 4.1----30.06- 79.9 87.4----
2024-07-22 08:06 amESE 1.9 4.1----30.06- 79.9 87.4----
2024-07-22 08:00 amESE 4.1 5.1----30.05+0.04 79.7 87.4----
2024-07-22 07:54 am SE 2.9 5.1----30.05- 79.7 87.4----
2024-07-22 07:48 amESE 2.9 5.1----30.04- 79.5 87.4----
2024-07-22 07:42 am SE 4.1 5.1----30.04- 79.3 87.4----
2024-07-22 07:36 am SE 2.9 4.1----30.04- 79.3 87.4----
2024-07-22 07:30 am SE 2.9 4.1----30.04- 79.0 87.4----
2024-07-22 07:24 am SE 2.9 4.1----30.04- 79.0 87.4----
2024-07-22 07:18 am SE 1.9 2.9----30.04- 79.0 87.4----
2024-07-22 07:12 amSSE 1.9 2.9----30.04- 79.0 87.4----
2024-07-22 07:06 am- 0.0 1.9----30.04- 79.2 87.4----
2024-07-22 07:00 am S 1.0 1.9----30.03+0.02 79.0 87.4----
2024-07-22 06:54 amSSE 1.0 1.9----30.03- 78.8 87.4----
2024-07-22 06:48 am E 1.9 2.9----30.03- 78.8 87.6----
2024-07-22 06:42 am E 2.9 4.1----30.03- 78.6 87.6----
2024-07-22 06:36 amESE 1.9 4.1----30.02- 78.4 87.6----
2024-07-22 06:30 am E 1.9 4.1----30.02- 78.8 87.6----
2024-07-22 06:24 am E 1.9 4.1----30.02- 78.8 87.6----
2024-07-22 06:18 am E 1.9 4.1----30.02- 79.2 87.6----
2024-07-22 06:12 am SE 2.9 4.1----30.01- 79.2 87.6----
2024-07-22 06:06 am E 1.9 2.9----30.01- 79.3 87.6----
2024-07-22 06:00 am E 1.9 4.1----30.01-0.02 79.5 87.6----
2024-07-22 05:54 am E 2.9 4.1----30.01- 79.5 87.6----
2024-07-22 05:48 amENE 2.9 5.1----30.01- 79.7 87.6----
2024-07-22 05:42 amENE 4.1 5.1----30.01- 79.5 87.6----
2024-07-22 05:36 amENE 4.1 6.0----30.00- 79.7 87.6----
2024-07-22 05:30 am NE 2.9 6.0----30.01- 79.7 87.8----
2024-07-22 05:24 am NE 5.1 6.0----30.00- 79.3 87.8----
2024-07-22 05:18 am NE 5.1 6.0----30.01- 79.3 87.8----
2024-07-22 05:12 amNNE 5.1 6.0----30.01- 79.3 87.8----
2024-07-22 05:06 am N 5.1 6.0----30.01- 79.5 87.8----
2024-07-22 05:00 am N 4.1 5.1----30.01-0.04 79.9 87.8----
2024-07-22 04:54 amNNE 2.9 4.1----30.01- 80.6 87.8----
2024-07-22 04:48 amENE 1.9 4.1----30.01- 80.2 87.8----
2024-07-22 04:42 am E 1.9 2.9----30.01- 80.2 87.8----
2024-07-22 04:36 am E 2.9 5.1----30.01- 80.2 87.8----
2024-07-22 04:30 am E 2.9 5.1----30.01- 80.4 87.8----
2024-07-22 04:24 amENE 4.1 6.0----30.01- 80.4 87.8----
2024-07-22 04:18 am E 4.1 6.0----30.01- 80.6 87.8----
2024-07-22 04:12 amENE 2.9 5.1----30.01- 80.4 87.8----
2024-07-22 04:06 am E 4.1 5.1----30.01- 80.2 87.8----
2024-07-22 04:00 am E 5.1 6.0----30.01-0.06 80.4 88.0----
2024-07-22 03:54 amENE 5.1 7.0----30.02- 80.6 88.0----
2024-07-22 03:48 am NE 5.1 6.0----30.02- 81.0 88.0----
2024-07-22 03:42 amENE 4.1 5.1----30.02- 80.8 88.0----
2024-07-22 03:36 am NE 4.1 6.0----30.02- 81.0 88.0----
2024-07-22 03:30 am NE 5.1 6.0----30.02- 81.0 88.0----
2024-07-22 03:24 amENE 5.1 7.0----30.03- 81.0 88.0----
2024-07-22 03:18 am NE 6.0 8.0----30.03- 80.6 88.0----
2024-07-22 03:12 am NE 6.0 8.0----30.03- 81.5 88.0----
2024-07-22 03:06 amNNE 7.0 8.0----30.03- 81.3 88.0----
2024-07-22 03:00 am NE 5.1 7.0----30.03-0.05 81.5 88.0----
2024-07-22 02:54 am NE 5.1 6.0----30.03- 81.5 88.0----
2024-07-22 02:48 am NE 4.1 5.1----30.03- 81.3 88.0----
2024-07-22 02:42 amENE 4.1 6.0----30.04- 81.5 88.0----
2024-07-22 02:36 amENE 4.1 5.1----30.04- 81.1 88.2----
2024-07-22 02:30 am E 1.9 4.1----30.04- 81.0 88.2----
2024-07-22 02:24 am E 2.9 4.1----30.05- 81.0 88.2----
2024-07-22 02:18 am E 1.9 4.1----30.04- 81.0 88.2----
2024-07-22 02:12 amESE 1.9 2.9----30.04- 81.0 88.2----
2024-07-22 02:06 amESE 1.9 4.1----30.05- 81.1 88.2----
2024-07-22 02:00 am E 2.9 4.1----30.05-0.03 81.1 88.2----
2024-07-22 01:54 amESE 1.9 4.1----30.06- 81.3 88.2----
2024-07-22 01:48 am SE 2.9 6.0----30.06- 81.7 88.2----
2024-07-22 01:42 am E 4.1 6.0----30.07- 82.2 88.2----
2024-07-22 01:36 am NE 6.0 7.0----30.07- 82.0 88.2----
2024-07-22 01:30 am NE 2.9 4.1----30.07- 82.4 88.2----
2024-07-22 01:24 amENE 4.1 5.1----30.07- 82.0 88.2----
2024-07-22 01:18 amENE 2.9 5.1----30.08- 82.4 88.2----
2024-07-22 01:12 amENE 4.1 5.1----30.08- 82.4 88.2----
2024-07-22 01:06 amENE 4.1 5.1----30.08- 82.6 88.3----
2024-07-22 01:00 amENE 2.9 6.0----30.07-0.01 82.6 88.3----
2024-07-22 12:54 am NE 5.1 6.0----30.07- 82.6 88.3----
2024-07-22 12:48 am NE 5.1 6.0----30.08- 82.6 88.3----
2024-07-22 12:42 am NE 5.1 5.1----30.08- 82.6 88.3----
2024-07-22 12:36 am NE 4.1 5.1----30.08- 82.6 88.3----
2024-07-22 12:30 am--------- 82.8 88.3----
2024-07-22 12:24 am--------- 82.8 88.3----
2024-07-22 12:18 amNNE 4.1 5.1----30.08- 82.4 88.3----
2024-07-22 12:12 amNNE 4.1 5.1----30.08- 82.6 88.3----
2024-07-22 12:06 amNNE 4.1 5.1----30.08- 82.4 88.3----
2024-07-22 12:00 amNNE 4.1 5.1----30.08+0.03 82.6 88.5----
2024-07-21 11:54 pmNNE 4.1 5.1----30.08- 82.8 88.5----
2024-07-21 11:48 pmNNE 2.9 4.1----30.08-- 88.5----
2024-07-21 11:42 pmNNE 4.1 5.1----30.08-- 88.5----
2024-07-21 11:36 pmNNE 2.9 4.1----30.08-- 88.5----
2024-07-21 11:30 pm N 4.1 5.1----30.08- 82.0 88.5----
2024-07-21 11:24 pm N 4.1 5.1----30.08- 81.9 88.5----
2024-07-21 11:18 pm N 2.9 4.1----30.08- 81.7 88.5----
2024-07-21 11:12 pmNNW 4.1 5.1----30.09- 81.3 88.5----
2024-07-21 11:06 pmNNW 5.1 6.0----30.09- 81.1 88.5----
2024-07-21 11:00 pmNNW 5.1 7.0----30.09+0.06 81.1 88.5----
2024-07-21 10:54 pmNNW 5.1 5.1----30.09- 81.1 88.5----
2024-07-21 10:48 pm NW 4.1 5.1----30.09- 81.1 88.5----
2024-07-21 10:42 pm NW 4.1 6.0----30.09- 81.3 88.5----
2024-07-21 10:36 pm NW 5.1 6.0----30.09- 81.3 88.5----
2024-07-21 10:30 pmWNW 4.1 5.1------ 81.3 88.7----
2024-07-21 10:24 pmWNW 4.1 6.0------ 81.3 88.7----
2024-07-21 10:18 pm NW 5.1 5.1----30.09- 81.5 88.7----
2024-07-21 10:12 pm W 4.1 5.1----30.08- 81.3 88.7----
2024-07-21 10:06 pmWNW 4.1 5.1----30.08- 81.5 88.7----
2024-07-21 10:00 pm NW 2.9 4.1----30.08+0.05 81.5 88.7----
2024-07-21 09:54 pm NW 2.9 4.1----30.08- 81.3 88.7----
2024-07-21 09:48 pmNNW 1.9 4.1----30.07- 81.1 88.7----
2024-07-21 09:42 pm N 4.1 5.1----30.08- 81.0 88.7----
2024-07-21 09:36 pm N 5.1 7.0----30.07- 81.1 88.7----
2024-07-21 09:30 pm N 6.0 8.0----30.07- 81.3 88.7----
2024-07-21 09:24 pm N 5.1 6.0----30.06- 81.3 88.7----
2024-07-21 09:18 pmNNE 6.0 6.0----30.06-- 88.7----
2024-07-21 09:12 pm N 5.1 6.0----30.06-- 88.7----
2024-07-21 09:06 pm N 5.1 7.0----30.05-- 88.7----
2024-07-21 09:00 pmNNE 5.1 6.0----30.05+0.03- 88.7----
2024-07-21 08:54 pm N 5.1 6.0----30.05-- 88.7----
2024-07-21 08:48 pm NE 4.1 5.1----30.04- 82.6 88.7----
2024-07-21 08:42 pm NE 2.9 4.1----30.04- 82.0 88.9----
2024-07-21 08:36 pm E 1.9 4.1----30.03- 81.9 88.7----
2024-07-21 08:30 pmENE 2.9 4.1----30.03- 81.9 88.7----
2024-07-21 08:24 pm SE 2.9 4.1----30.03- 82.2 88.7----
2024-07-21 08:18 pmESE 1.9 2.9----30.02-- 88.7----
2024-07-21 08:12 pm E 1.9 2.9----30.03-- 88.7----
2024-07-21 08:06 pm NE 1.0 2.9----30.03-- 88.7----
2024-07-21 08:00 pm NE 1.9 2.9----30.03+0.03 81.9 88.7----
2024-07-21 07:54 pm NW 5.1 6.0----30.02- 81.9 88.7----
2024-07-21 07:48 pmNNW 4.1 4.1----30.03-------
2024-07-21 07:42 pm W 1.0 1.9----30.02-------
2024-07-21 07:36 pm SE 1.0 1.9----30.03-------
2024-07-21 07:30 pmSSE 1.9 4.1----30.02- 81.1 88.7----
2024-07-21 07:24 pm S 2.9 4.1----30.02- 81.0 88.7----
2024-07-21 07:18 pmWSW 2.9 4.1----30.03- 80.8 88.5----
2024-07-21 07:12 pmNNW 5.1 6.0----30.03- 80.8 88.5----
2024-07-21 07:06 pm NW 2.9 4.1----30.03- 81.1 88.7----
2024-07-21 07:00 pm SW 1.9 6.0----30.03+0.02- 88.7----
2024-07-21 06:54 pmWNW 5.1 8.0----30.03-- 88.9----
2024-07-21 06:48 pm- 0.0 1.9----30.03- 80.4 88.9----
2024-07-21 06:42 pm S 1.9 2.9----30.03- 80.4 88.5----
2024-07-21 06:36 pm S 1.9 7.0----30.03- 80.6 88.2----
2024-07-21 06:30 pm-------30.03- 80.2 87.6----
2024-07-21 06:24 pm-------30.02- 80.4 87.4----
2024-07-21 06:18 pm W 2.9 4.1----30.02- 80.2 87.4----
2024-07-21 06:12 pm SW 1.9 4.1----30.02- 80.1 87.4----
2024-07-21 06:06 pmSSW 1.9 7.0----30.02- 79.5 87.4----
2024-07-21 06:00 pmSSW 2.9 8.9----30.02-0.01 79.7 87.4----
2024-07-21 05:54 pm S 4.1 11.1----30.03- 79.9 87.4----
2024-07-21 05:48 pm S 7.0 13.0----30.03- 79.2 87.4----
2024-07-21 05:42 pm S 6.0 13.0----30.03- 79.0 87.4----
2024-07-21 05:36 pm S 7.0 14.0----30.02- 79.9 87.6----
2024-07-21 05:30 pm S 8.0 15.0----30.02-- 87.6----
2024-07-21 05:24 pm SE 8.0 12.0----30.01-- 87.6----
2024-07-21 05:18 pm-------30.01- 82.8 87.6----
2024-07-21 05:12 pm-------30.01- 82.8 87.6----
2024-07-21 05:06 pm-------30.00- 81.9 87.8----
2024-07-21 05:00 pmSSE 13.0 17.1----30.00-0.05 82.0 88.0----
2024-07-21 04:54 pmSSE 9.9 18.1----30.00- 83.5 88.0----
2024-07-21 04:48 pm SE 13.0 21.0----30.00- 86.5 88.0----
2024-07-21 04:42 pm SE 7.0 9.9----29.99- 88.7 88.2----
2024-07-21 04:36 pmESE 6.0 8.9----29.99- 89.4 88.0----
2024-07-21 04:30 pm-------29.99- 91.2 88.0----
2024-07-21 04:24 pm-------30.00- 91.2 88.0----
2024-07-21 04:18 pmENE 6.0 9.9----30.01- 91.8 88.0----
2024-07-21 04:12 pmENE 8.0 11.1----30.00- 91.8 88.0----
2024-07-21 04:06 pmNNE 8.0 11.1----30.01- 91.2 88.0----
2024-07-21 04:00 pm-------30.01-0.06 91.4 88.0----
2024-07-21 03:54 pm-------30.01- 91.2 88.0----
2024-07-21 03:48 pm NE 6.0 8.9----30.01- 90.9 87.8----
2024-07-21 03:42 pmNNE 8.0 11.1----30.01- 90.7 87.6----
2024-07-21 03:36 pm NE 8.9 12.0----30.01- 90.7 87.6----
2024-07-21 03:30 pm NE 8.9 11.1----30.00- 90.7 87.6----
2024-07-21 03:24 pmNNE 7.0 8.9----30.01- 91.2 87.6----
2024-07-21 03:18 pmNNE 6.0 7.0----30.02- 91.2 87.6----
2024-07-21 03:12 pm NE 5.1 8.0----30.03- 91.2 87.6----
2024-07-21 03:06 pmNNE 5.1 7.0----30.03- 91.2 87.6----
2024-07-21 03:00 pm NE 7.0 8.9----30.03-0.05 91.0 87.6----
2024-07-21 02:54 pm NE 5.1 8.0----30.03- 91.0 87.6----
2024-07-21 02:48 pmENE 6.0 9.9----30.03- 91.0 87.6----
2024-07-21 02:42 pmNNE 6.0 8.0----30.03- 90.9 87.6----
2024-07-21 02:36 pm NE 6.0 8.0----30.03- 90.7 87.6----
2024-07-21 02:30 pm NE 5.1 7.0------ 90.9 87.4----
2024-07-21 02:24 pmNNE 6.0 8.0------ 90.9 87.4----
2024-07-21 02:18 pmNNE 5.1 7.0----30.04- 90.7 87.4----
2024-07-21 02:12 pm NE 5.1 6.0----30.05- 90.7 87.4----
2024-07-21 02:06 pm NE 5.1 6.0----30.05- 90.9 87.4----
2024-07-21 02:00 pmNNE 5.1 6.0----30.05-0.03- 87.4----
2024-07-21 01:54 pm N 4.1 6.0----30.06-- 87.4----
2024-07-21 01:48 pm N 5.1 6.0----30.06-- 87.4----
2024-07-21 01:42 pm N 5.1 6.0----30.06-- 87.4----
2024-07-21 01:36 pmNNE 5.1 7.0----30.06-- 87.4----
2024-07-21 01:30 pmNNE 6.0 7.0----30.06- 89.8 87.4----
2024-07-21 01:24 pmNNE 6.0 7.0----30.06- 89.6 87.3----
2024-07-21 01:18 pmNNE 6.0 7.0----30.06- 89.4 87.3----
2024-07-21 01:12 pmNNE 6.0 7.0----30.06- 89.4 87.3----
2024-07-21 01:06 pmNNE 5.1 6.0----30.07- 89.4 87.1----
2024-07-21 01:00 pmNNE 4.1 6.0----30.07-0.01 89.4 87.1----
2024-07-21 12:54 pmNNE 5.1 7.0----30.07- 89.1 86.9----
2024-07-21 12:48 pmNNE 6.0 8.0----30.07- 89.1 86.9----
2024-07-21 12:42 pmNNE 5.1 7.0----30.07- 88.9 86.9----
2024-07-21 12:36 pmNNE 5.1 6.0----30.08- 88.7 86.7----
2024-07-21 12:30 pmNNE 5.1 6.0----30.08- 88.5 86.7----
2024-07-21 12:24 pmNNE 5.1 7.0----30.08- 88.3 86.7----
2024-07-21 12:18 pmNNE 6.0 7.0----30.08- 88.2 86.7----
2024-07-21 12:12 pmNNE 5.1 7.0----30.08- 88.2 86.7----
2024-07-21 12:06 pm N 6.0 7.0----30.08- 88.0 86.7----
2024-07-21 12:00 pmNNE 6.0 8.0----30.08+0.00 87.8 86.7----
2024-07-21 11:54 am N 6.0 7.0----30.08- 88.0 86.7----
2024-07-21 11:48 amNNE 5.1 6.0----30.08- 88.0 86.7----
2024-07-21 11:42 am NE 4.1 8.0----30.08- 88.3 86.7----
2024-07-21 11:36 am NE 7.0 8.9----30.09- 88.0 86.7----
2024-07-21 11:30 am NE 5.1 7.0----30.09- 87.6 86.7----
2024-07-21 11:24 amENE 5.1 8.0----30.09- 87.8 86.7----
2024-07-21 11:18 am NE 6.0 8.0----30.09- 87.4 86.7----
2024-07-21 11:12 am NE 1.9 2.9----30.09- 88.3 86.7----
2024-07-21 11:06 am NE 4.1 5.1----30.09- 87.8 86.7----
2024-07-21 11:00 am E 2.9 5.1----30.08+0.00 88.3 86.7----
2024-07-21 10:54 amENE 4.1 6.0----30.08- 87.6 86.7----
2024-07-21 10:48 am NE 2.9 5.1----30.08- 87.3 86.7----
2024-07-21 10:42 amENE 5.1 7.0----30.08- 87.1 86.7----
2024-07-21 10:36 amENE 4.1 7.0----30.08- 86.9 86.7----
2024-07-21 10:30 am-------30.08- 87.3 86.7----
2024-07-21 10:24 am-------30.08- 86.9 86.7----
2024-07-21 10:18 am E 1.9 5.1----30.08- 86.9 86.9----
2024-07-21 10:12 am NE 2.9 5.1----30.08- 86.2 86.9----
2024-07-21 10:06 am E 4.1 5.1----30.08- 85.8 86.9----
2024-07-21 10:00 amENE 2.9 5.1----30.08+0.01 86.0 86.9----
2024-07-21 09:54 amESE 2.9 5.1----30.08- 85.6 86.9----
2024-07-21 09:48 amENE 1.9 6.0----30.08- 84.7 86.7----
2024-07-21 09:42 amNNE 2.9 5.1----30.09- 84.9 86.7----
2024-07-21 09:36 am NE 2.9 4.1----30.09- 84.6 86.5----
2024-07-21 09:30 am NE 4.1 6.0----30.09-- 86.5----
2024-07-21 09:24 am N 2.9 5.1----30.09-- 86.5----
2024-07-21 09:18 am-------30.09- 83.3 86.5----
2024-07-21 09:12 am-------30.09- 82.9 86.5----
2024-07-21 09:06 am-------30.09- 83.5 86.5----
2024-07-21 09:00 am NE 2.9 4.1----30.09+0.03- 86.5----
2024-07-21 08:54 amENE 1.9 4.1----30.09-- 86.5----